Wind_Speed
34 33 33 33 34 35 37 39 39 39 39 39 38 38 38 38 39 40 40 41 42 43 45 46 48 51 53 55 56 59 62 64 67 68 70 71 71 72 72 73 73 73 73
32 31 32 33 34 35 37 38 38 39 39 39 39 40 40 41 42 43 43 44 46 47 49 51 53 55 58 61 63 66 68 71 72 74 77 77 76 77 78 78 78 78 79
29 30 32 32 33 34 36 37 37 38 39 40 41 42 43 44 44 45 47 48 50 52 54 56 57 60 62 64 66 67 69 70 72 74 77 77 77 77 77 79 79 80 80
30 32 33 32 33 34 35 35 37 39 40 42 43 45 46 47 48 50 51 53 55 57 59 60 62 64 65 66 66 65 65 65 66 67 68 69 68 67 65 65 66 66 66
33 34 34 33 33 34 35 36 38 40 43 45 47 48 50 51 53 55 56 58 60 61 63 64 65 65 65 63 62 61 60 59 58 57 56 56 55 53 50 48 46 47 48
36 37 36 35 36 37 38 38 40 43 46 48 50 52 53 55 56 58 59 61 62 64 64 64 64 63 60 58 56 56 55 54 54 53 53 51 48 46 44 43 41 41 41
40 41 40 40 40 40 41 42 43 46 48 51 53 54 56 57 58 60 61 62 63 64 63 62 60 55 52 51 51 51 51 51 51 51 51 49 47 46 43 42 40 39 38
41 42 43 44 42 43 44 44 46 48 50 53 55 56 57 58 60 61 62 62 63 62 60 56 50 47 46 47 48 48 49 50 51 51 51 49 47 45 43 42 40 38 35
36 38 40 40 42 43 45 46 47 49 52 55 56 57 58 60 61 62 62 62 61 58 52 47 43 43 44 45 47 48 50 51 51 51 50 48 47 45 43 41 39 38 34
34 34 36 38 41 43 45 46 47 50 54 56 58 59 61 62 63 62 61 59 56 50 44 41 41 42 44 46 48 50 51 52 52 52 50 48 45 43 41 39 37 37 34
38 38 38 40 42 44 44 46 49 52 56 58 60 62 63 63 62 60 59 55 48 42 39 39 41 43 46 49 51 52 53 53 53 52 49 46 44 41 39 37 36 34 32
41 41 40 41 43 43 44 47 50 54 58 61 63 64 63 62 61 59 53 46 41 38 38 40 43 46 49 52 53 53 53 53 52 49 47 44 42 40 38 35 33 32 30
43 42 41 41 41 42 44 48 52 56 59 62 64 63 62 60 57 52 45 39 38 38 40 43 46 49 52 53 54 53 52 50 48 45 43 41 40 38 36 33 31 30 28
45 43 41 41 40 41 46 51 55 59 62 63 62 61 58 56 51 44 39 38 38 40 43 46 50 52 54 54 53 51 49 47 45 42 40 38 36 34 32 31 29 27 25
42 39 37 37 39 43 48 53 58 60 61 60 59 57 54 51 44 39 38 38 40 43 46 50 52 53 53 52 51 48 46 45 42 40 39 36 33 31 29 27 25 24 22
39 34 34 36 42 47 52 56 58 59 58 57 55 53 49 44 39 38 39 41 44 47 50 52 53 53 52 51 49 46 44 42 39 37 36 33 30 27 24 22 20 19 17
40 37 37 42 46 50 53 55 56 55 54 52 51 48 42 38 38 39 41 44 47 50 52 53 52 52 51 49 46 44 42 40 37 35 33 29 26 23 20 18 16 15 13
41 40 42 45 48 50 51 52 52 51 50 49 46 41 37 37 38 41 44 47 50 52 52 52 52 51 50 47 44 42 41 37 34 32 29 25 22 20 16 14 12 11 9
43 44 45 46 47 48 49 49 49 47 47 44 39 35 35 37 40 43 46 49 51 51 51 51 51 49 47 44 42 39 36 33 30 28 25 22 18 15 12 11 10 9 7
41 41 42 43 45 45 45 45 44 44 41 36 33 34 36 39 42 45 47 48 49 50 50 50 48 46 43 41 38 34 30 28 26 24 22 18 13 10 9 9 9 9 7
36 36 38 40 41 41 40 41 41 38 33 31 32 34 37 40 43 45 46 47 48 48 48 47 45 43 41 37 33 29 26 24 22 21 18 13 7 6 9 10 10 10 9
31 33 35 36 36 37 37 37 34 31 29 30 32 35 38 41 42 43 44 46 46 46 45 44 42 40 37 34 30 26 23 21 18 16 12 6 3 7 11 12 12 12 12
28 30 32 32 33 34 33 31 27 26 27 30 33 36 38 40 41 42 44 44 44 44 42 40 38 35 33 30 27 24 20 17 14 10 6 1 5 10 13 14 14 15 15
27 28 28 29 30 29 26 23 22 25 28 31 34 36 37 38 40 41 41 41 41 40 38 35 33 31 29 27 25 20 16 13 9 5 1 4 8 13 15 17 17 18 18
24 24 25 26 25 21 19 19 22 25 28 32 35 36 37 38 39 39 39 39 38 37 34 31 30 28 26 24 20 15 12 9 5 4 5 8 11 15 18 19 19 19 19
21 22 22 20 17 15 16 19 22 26 29 32 34 35 36 37 37 36 36 37 37 34 32 30 29 28 25 21 16 12 10 8 6 6 8 11 13 17 20 21 21 20 19
Wind_Direction
297 303 308 312 312 313 313 314 314 315 315 314 314 315 316 316 315 313 312 309 307 306 304 301 300 299 298 297 295 293 292 290 289 287 285 285 284 283 282 281 280 279 278
294 299 303 306 309 310 312 314 315 314 313 314 315 316 316 315 314 312 310 308 306 304 302 300 299 299 298 297 295 293 292 291 290 289 288 287 284 283 283 282 280 278 277
288 294 299 302 305 308 312 313 313 313 314 315 316 316 315 313 312 310 308 307 305 304 303 301 300 299 299 297 296 295 294 294 293 292 290 289 288 285 282 280 278 277 276
286 291 294 297 301 306 310 312 313 315 316 316 316 315 314 313 311 309 308 306 305 304 303 303 302 302 301 300 299 298 297 296 295 294 293 292 292 290 287 283 280 278 276
285 288 289 291 296 303 308 311 314 315 316 316 316 315 314 313 311 310 309 308 307 306 305 304 303 302 301 300 300 300 300 299 299 298 297 297 297 296 295 292 287 283 280
282 284 285 286 290 297 303 308 311 313 315 315 315 314 313 313 311 310 309 307 306 306 305 303 302 301 300 300 301 301 301 301 300 300 300 299 298 297 296 295 292 288 284
279 281 280 281 286 292 297 301 306 310 313 314 314 313 313 312 310 309 308 306 305 304 303 302 301 301 301 302 303 303 303 303 302 301 300 299 297 296 295 293 291 288 285
280 281 280 281 284 289 293 298 303 308 311 313 313 313 312 310 309 308 307 305 304 303 301 301 301 302 304 305 307 307 307 306 304 301 299 297 295 294 294 293 292 289 287
282 283 283 283 285 288 292 297 301 306 310 311 312 312 310 310 309 308 307 306 305 303 302 302 303 305 307 309 310 310 310 309 306 303 299 295 292 291 290 292 292 292 291
283 285 284 285 287 289 292 297 301 306 309 311 311 311 311 310 310 309 308 307 305 303 302 303 305 308 310 311 312 312 312 311 308 304 299 295 291 288 286 288 291 292 293
283 285 285 286 286 289 292 297 302 306 309 311 312 312 311 311 311 310 309 307 304 302 303 305 308 310 311 312 313 313 313 312 309 306 301 295 290 287 284 285 287 290 291
281 285 286 284 286 289 294 299 305 308 310 312 312 312 312 311 311 310 308 305 303 303 306 308 310 312 313 313 313 312 312 311 309 306 302 296 290 285 282 282 284 286 288
280 283 285 283 286 291 297 305 308 310 311 312 312 311 311 311 310 309 307 304 304 306 308 310 312 312 313 313 312 312 311 310 309 307 304 299 292 285 281 280 281 283 284
275 277 279 282 289 298 304 308 310 311 311 311 311 311 311 311 310 308 305 305 306 308 310 312 313 313 313 313 312 311 310 308 308 308 306 302 295 287 280 278 278 279 280
272 273 278 286 296 304 307 309 310 310 310 311 311 311 311 310 308 306 306 307 308 310 312 314 315 314 314 313 312 310 308 307 307 308 307 304 298 290 281 276 274 274 275
275 277 286 298 305 308 308 309 309 310 310 311 311 311 311 309 307 306 307 309 310 312 314 315 315 314 314 313 312 309 306 305 305 307 307 304 299 292 283 275 269 267 264
281 289 303 310 310 309 308 309 309 310 311 311 310 310 309 307 307 308 309 311 313 315 316 316 316 315 315 314 312 310 306 304 305 305 306 302 297 291 281 272 264 257 255
285 297 307 309 308 308 308 308 309 310 310 310 309 308 307 308 309 311 313 315 316 317 318 318 318 317 316 315 314 311 307 306 305 305 305 302 295 287 274 262 253 245 246
288 298 304 305 306 306 307 308 309 309 308 309 308 307 308 310 313 315 316 318 319 319 319 319 319 319 318 317 315 313 310 308 306 306 306 303 294 281 261 243 232 225 225
290 298 300 302 304 305 307 307 307 308 308 307 307 309 311 314 316 318 319 320 321 321 321 321 321 321 320 319 318 316 313 310 309 308 307 302 288 265 234 215 203 199 196
291 295 298 300 303 305 306 306 307 307 307 306 309 312 315 318 319 321 322 323 324 324 324 324 324 324 323 323 323 322 318 315 313 312 310 300 274 224 195 185 179 176 173
290 293 296 299 302 304 305 306 306 306 306 309 313 316 319 321 323 325 326 327 327 328 328 328 328 328 328 328 329 326 323 320 317 315 311 294 218 175 169 166 164 162 161
287 292 296 299 302 304 305 305 305 306 309 313 317 321 323 326 328 330 331 331 331 331 331 331 331 331 332 332 332 330 328 326 324 321 314 231 153 154 156 155 154 153 153
288 293 297 301 303 305 305 305 306 309 313 318 322 325 328 332 334 335 334 334 334 335 334 335 336 337 338 338 335 335 336 336 336 340 56 126 136 145 148 150 151 151 150
290 295 299 303 305 305 306 307 310 314 319 323 326 330 334 337 338 338 337 338 338 339 340 341 342 343 343 343 342 344 351 0 19 62 100 117 131 141 144 146 148 149 148
293 298 303 305 306 306 308 311 316 321 325 329 333 336 339 340 340 341 342 343 344 345 346 347 348 347 347 350 356 6 20 37 59 81 98 115 128 138 143 146 146 146 145
Height
5860 5859 5857 5855 5852 5849 5847 5844 5841 5838 5835 5832 5829 5825 5821 5817 5813 5809 5805 5801 5797 5793 5789 5785 5781 5776 5771 5766 5761 5756 5751 5746 5740 5736 5732 5730 5726 5722 5717 5713 5709 5706 5702
5858 5855 5853 5851 5848 5845 5842 5839 5835 5832 5829 5825 5822 5817 5813 5808 5804 5800 5796 5792 5788 5784 5779 5774 5769 5764 5758 5752 5746 5741 5735 5728 5721 5714 5709 5707 5708 5703 5696 5691 5686 5682 5679
5853 5851 5849 5847 5844 5841 5837 5833 5830 5826 5822 5818 5814 5809 5805 5801 5797 5792 5788 5783 5777 5772 5767 5761 5755 5749 5743 5736 5729 5722 5716 5709 5702 5693 5686 5681 5679 5677 5675 5667 5661 5657 5654
5848 5847 5845 5842 5839 5836 5832 5828 5823 5819 5815 5810 5806 5802 5797 5793 5788 5783 5777 5771 5765 5759 5753 5747 5740 5733 5726 5719 5711 5704 5697 5691 5684 5677 5668 5661 5654 5649 5646 5643 5637 5633 5630
5842 5841 5839 5837 5834 5830 5826 5821 5816 5811 5806 5802 5797 5793 5788 5783 5777 5771 5765 5759 5752 5745 5739 5732 5724 5717 5710 5703 5695 5688 5681 5674 5667 5660 5653 5646 5639 5631 5625 5622 5619 5616 5613
5836 5834 5833 5830 5827 5823 5819 5814 5808 5804 5799 5794 5790 5784 5779 5773 5767 5760 5753 5746 5739 5732 5725 5718 5710 5703 5695 5688 5681 5674 5668 5661 5654 5647 5641 5634 5628 5621 5615 5610 5607 5604 5602
5829 5827 5825 5822 5819 5816 5812 5807 5802 5797 5792 5787 5782 5776 5770 5764 5757 5750 5743 5735 5728 5720 5712 5705 5697 5689 5683 5676 5669 5662 5656 5649 5642 5636 5629 5623 5616 5610 5605 5600 5597 5594 5592
5821 5819 5816 5813 5811 5808 5804 5799 5794 5790 5785 5779 5774 5768 5761 5754 5747 5739 5732 5724 5716 5708 5700 5692 5684 5678 5671 5665 5658 5651 5644 5637 5630 5624 5617 5611 5605 5600 5595 5590 5586 5584 5582
5812 5810 5808 5806 5803 5800 5796 5791 5787 5782 5777 5771 5765 5758 5751 5744 5735 5727 5719 5711 5702 5694 5687 5680 5674 5668 5661 5654 5647 5640 5633 5625 5618 5611 5605 5599 5594 5589 5584 5580 5575 5572 5571
5804 5803 5801 5798 5795 5791 5787 5783 5778 5774 5768 5762 5755 5748 5740 5732 5723 5714 5706 5697 5689 5682 5676 5670 5664 5658 5651 5644 5636 5629 5621 5613 5605 5598 5592 5586 5581 5577 5573 5570 5566 5562 5560
5797 5795 5792 5790 5786 5782 5777 5773 5769 5764 5758 5751 5743 5736 5727 5719 5710 5702 5694 5685 5678 5672 5666 5661 5655 5648 5641 5633 5625 5617 5609 5601 5592 5585 5579 5573 5569 5565 5562 5560 5557 5554 5551
5788 5787 5784 5780 5776 5772 5768 5764 5759 5754 5747 5740 5732 5724 5715 5707 5698 5690 5682 5675 5669 5663 5657 5651 5645 5638 5630 5622 5613 5605 5596 5588 5580 5573 5566 5561 5556 5553 5551 5549 5548 5546 5544
5780 5778 5774 5770 5766 5763 5759 5754 5749 5743 5736 5728 5720 5712 5704 5695 5687 5679 5672 5666 5660 5655 5649 5642 5635 5627 5618 5609 5600 5592 5584 5576 5568 5561 5554 5549 5544 5541 5540 5539 5538 5537 5536
5770 5767 5764 5760 5757 5753 5749 5744 5739 5732 5725 5717 5709 5701 5693 5685 5677 5670 5664 5658 5652 5646 5640 5632 5624 5615 5606 5597 5588 5579 5571 5563 5556 5550 5544 5538 5533 5531 5530 5530 5529 5529 5529
5758 5755 5752 5749 5746 5743 5739 5734 5728 5721 5713 5706 5698 5690 5682 5674 5667 5661 5655 5650 5644 5637 5629 5621 5612 5603 5593 5584 5576 5568 5559 5552 5546 5539 5533 5528 5524 5521 5520 5521 5521 5522 5522
5747 5744 5741 5739 5736 5733 5729 5724 5717 5710 5702 5695 5687 5680 5672 5665 5659 5654 5648 5641 5634 5627 5618 5610 5600 5590 5581 5572 5564 5556 5548 5541 5536 5530 5524 5519 5515 5513 5512 5513 5514 5515 5515
5738 5734 5731 5729 5727 5723 5718 5712 5706 5699 5692 5685 5678 5671 5664 5658 5652 5646 5640 5632 5624 5616 5607 5597 5588 5578 5569 5561 5552 5544 5536 5531 5526 5521 5516 5511 5508 5506 5505 5506 5507 5509 5510
5730 5726 5723 5721 5718 5713 5708 5702 5696 5690 5683 5677 5670 5663 5657 5651 5645 5638 5631 5623 5614 5604 5595 5585 5576 5567 5558 5549 5541 5533 5525 5520 5516 5512 5507 5504 5501 5499 5499 5501 5502 5504 5505
5721 5718 5715 5712 5708 5704 5699 5693 5688 5681 5675 5669 5662 5657 5651 5645 5638 5630 5622 5613 5603 5593 5584 5574 5565 5556 5547 5538 5531 5523 5516 5511 5507 5503 5500 5497 5494 5493 5494 5496 5498 5500 5502
5713 5711 5708 5705 5700 5696 5691 5685 5680 5674 5668 5662 5656 5651 5645 5638 5630 5622 5613 5603 5593 5583 5573 5564 5555 5546 5537 5529 5522 5515 5508 5503 5499 5496 5493 5490 5489 5489 5490 5492 5495 5498 5500
5705 5704 5701 5697 5693 5688 5683 5678 5673 5667 5661 5656 5651 5646 5639 5631 5623 5614 5604 5594 5585 5575 5565 5555 5545 5537 5528 5521 5514 5507 5502 5497 5493 5490 5487 5485 5484 5485 5487 5490 5493 5496 5499
5699 5697 5693 5690 5686 5681 5677 5671 5666 5661 5657 5652 5646 5640 5632 5624 5615 5605 5596 5586 5576 5566 5556 5547 5537 5528 5521 5514 5507 5502 5496 5492 5489 5486 5483 5482 5482 5484 5486 5489 5492 5496 5499
5692 5690 5687 5683 5679 5675 5670 5665 5661 5657 5653 5647 5641 5634 5626 5616 5607 5598 5588 5579 5569 5560 5550 5541 5532 5523 5515 5508 5502 5497 5492 5488 5485 5483 5481 5480 5481 5483 5486 5489 5493 5496 5500
5686 5683 5680 5677 5673 5668 5664 5660 5657 5653 5649 5643 5636 5628 5619 5610 5601 5592 5582 5573 5564 5555 5545 5536 5527 5519 5512 5505 5499 5494 5490 5486 5484 5482 5481 5481 5482 5484 5487 5491 5494 5498 5501
5680 5678 5675 5671 5667 5663 5660 5658 5654 5650 5644 5638 5630 5622 5613 5605 5596 5587 5578 5569 5560 5551 5542 5533 5524 5517 5509 5503 5497 5492 5488 5485 5483 5483 5482 5483 5484 5486 5489 5493 5497 5500 5504
5675 5672 5668 5665 5662 5660 5658 5656 5652 5647 5640 5633 5625 5617 5608 5600 5592 5583 5575 5565 5556 5547 5538 5529 5521 5514 5507 5501 5496 5492 5489 5487 5486 5485 5485 5485 5486 5489 5492 5496 5500 5504 5507